Radioactive Concentration measured at Dust Monitors near the Site Boundary of Fukushima Daiichi Nuclear Power Station
Date,Time,MP1(Bq/cm3),MP2(Bq/cm3),MP3(Bq/cm3),MP4(Bq/cm3),MP5(Bq/cm3),MP6(Bq/cm3),MP7(Bq/cm3),MP8(Bq/cm3),Wind Direction,Wind Velocity(m/s)
2024/04/16,00:00,1.0E-06,1.0E-06,1.0E-06,2.3E-06,1.0E-06,1.0E-06,1.0E-06,1.0E-06,west-southwest,0.8
2024/04/16,00:10,1.0E-06,1.0E-06,1.0E-06,1.0E-06,1.1E-06,1.0E-06,1.0E-06,1.0E-06,-,CALM
2024/04/16,00:20,1.0E-06,1.0E-06,1.0E-06,1.0E-06,1.0E-06,1.0E-06,1.0E-06,1.0E-06,-,CALM
2024/04/16,00:30,1.0E-06,1.0E-06,1.0E-06,1.0E-06,1.0E-06,1.0E-06,1.0E-06,1.0E-06,south,1.3
2024/04/16,00:40,1.0E-06,1.0E-06,1.0E-06,1.0E-06,1.0E-06,1.0E-06,1.0E-06,1.0E-06,south,1.5
2024/04/16,00:50,1.0E-06,1.0E-06,1.0E-06,1.0E-06,1.0E-06,1.0E-06,1.0E-06,1.0E-06,south,1.1
2024/04/16,01:00,1.0E-06,1.0E-06,1.0E-06,1.0E-06,1.0E-06,1.0E-06,1.0E-06,1.0E-06,southwest,0.7
2024/04/16,01:10,1.0E-06,1.0E-06,1.4E-06,1.0E-06,1.0E-06,1.0E-06,1.0E-06,1.0E-06,southwest,0.9
2024/04/16,01:20,1.0E-06,1.0E-06,1.0E-06,1.0E-06,1.0E-06,1.2E-06,1.0E-06,1.0E-06,southwest,0.8
2024/04/16,01:30,1.0E-06,1.0E-06,1.0E-06,1.0E-06,1.0E-06,1.0E-06,1.0E-06,1.0E-06,west-southwest,0.8
2024/04/16,01:40,1.0E-06,1.0E-06,1.0E-06,1.0E-06,1.7E-06,1.0E-06,1.0E-06,1.0E-06,west,0.9
2024/04/16,01:50,1.0E-06,1.0E-06,1.0E-06,1.1E-06,1.0E-06,1.0E-06,1.0E-06,1.0E-06,west,1.0
2024/04/16,02:00,1.4E-06,1.0E-06,1.0E-06,1.0E-06,1.0E-06,1.0E-06,1.0E-06,1.0E-06,west,1.0
2024/04/16,02:10,1.0E-06,1.0E-06,1.0E-06,1.0E-06,1.0E-06,1.0E-06,1.0E-06,1.0E-06,west,0.7
2024/04/16,02:20,1.0E-06,1.0E-06,1.0E-06,1.0E-06,1.0E-06,1.0E-06,1.0E-06,1.0E-06,west-northwest,0.5
2024/04/16,02:30,1.1E-06,1.0E-06,1.0E-06,1.5E-06,1.0E-06,1.0E-06,1.0E-06,1.0E-06,northwest,0.6
2024/04/16,02:40,1.0E-06,1.0E-06,1.0E-06,1.9E-06,1.0E-06,1.0E-06,1.0E-06,1.0E-06,west-northwest,0.8
2024/04/16,02:50,1.7E-06,1.0E-06,1.0E-06,1.8E-06,1.0E-06,1.0E-06,1.0E-06,1.0E-06,west-northwest,0.6
2024/04/16,03:00,1.0E-06,1.0E-06,1.0E-06,1.8E-06,1.0E-06,1.0E-06,1.0E-06,1.0E-06,-,CALM
2024/04/16,03:10,1.0E-06,1.0E-06,1.0E-06,1.7E-06,1.0E-06,1.0E-06,1.0E-06,1.0E-06,-,CALM
2024/04/16,03:20,1.0E-06,1.0E-06,1.0E-06,1.7E-06,1.0E-06,1.4E-06,1.0E-06,1.0E-06,-,CALM
2024/04/16,03:30,1.0E-06,1.0E-06,1.0E-06,1.4E-06,1.0E-06,2.0E-06,1.3E-06,1.0E-06,-,CALM
2024/04/16,03:40,1.0E-06,1.0E-06,1.0E-06,1.0E-06,1.1E-06,2.0E-06,2.4E-06,1.0E-06,west-northwest,1.0
2024/04/16,03:50,1.0E-06,1.0E-06,1.6E-06,1.0E-06,2.2E-06,1.9E-06,2.2E-06,1.0E-06,west-northwest,1.3
2024/04/16,04:00,1.0E-06,1.0E-06,1.0E-06,1.0E-06,1.8E-06,1.8E-06,2.4E-06,1.0E-06,west-northwest,0.7
2024/04/16,04:10,1.0E-06,1.0E-06,1.6E-06,1.0E-06,1.6E-06,1.7E-06,2.0E-06,1.5E-06,west-northwest,0.5
2024/04/16,04:20,1.0E-06,1.0E-06,1.0E-06,1.0E-06,2.2E-06,1.2E-06,1.0E-06,1.0E-06,west,1.4
2024/04/16,04:30,1.0E-06,1.0E-06,1.0E-06,1.0E-06,2.2E-06,1.0E-06,1.8E-06,1.0E-06,northwest,0.6
2024/04/16,04:40,1.0E-06,1.0E-06,1.0E-06,1.0E-06,1.0E-06,1.0E-06,1.0E-06,1.0E-06,-,CALM
2024/04/16,04:50,1.4E-06,1.0E-06,1.0E-06,1.0E-06,1.0E-06,1.0E-06,1.0E-06,1.0E-06,-,CALM
2024/04/16,05:00,1.8E-06,1.0E-06,1.0E-06,1.0E-06,1.0E-06,1.0E-06,1.0E-06,1.0E-06,east,0.5
2024/04/16,05:10,2.5E-06,1.0E-06,1.0E-06,1.0E-06,1.0E-06,1.0E-06,1.0E-06,1.0E-06,east,0.6
2024/04/16,05:20,2.5E-06,1.0E-06,1.0E-06,1.0E-06,1.0E-06,1.0E-06,1.0E-06,1.0E-06,-,CALM
2024/04/16,05:30,1.1E-06,2.1E-06,1.1E-06,1.0E-06,1.0E-06,1.0E-06,1.0E-06,1.0E-06,-,CALM
2024/04/16,05:40,1.8E-06,1.7E-06,1.0E-06,1.0E-06,1.0E-06,1.0E-06,1.0E-06,1.0E-06,north-northwest,0.8
2024/04/16,05:50,1.0E-06,1.9E-06,1.5E-06,1.0E-06,1.0E-06,1.0E-06,1.0E-06,1.0E-06,north-northwest,1.2
2024/04/16,06:00,1.0E-06,1.3E-06,1.6E-06,1.0E-06,1.0E-06,1.0E-06,1.0E-06,1.0E-06,north-northwest,1.6
2024/04/16,06:10,1.0E-06,2.1E-06,1.0E-06,1.0E-06,1.0E-06,1.0E-06,1.5E-06,1.0E-06,north-northwest,0.8
2024/04/16,06:20,1.0E-06,1.0E-06,1.0E-06,1.0E-06,1.0E-06,1.0E-06,1.0E-06,1.0E-06,northwest,0.7
2024/04/16,06:30,1.2E-06,1.0E-06,1.0E-06,1.0E-06,1.1E-06,1.0E-06,1.0E-06,1.0E-06,north-northwest,0.8
2024/04/16,06:40,1.0E-06,1.0E-06,1.0E-06,1.0E-06,1.0E-06,1.0E-06,1.0E-06,1.0E-06,northwest,0.6
2024/04/16,06:50,1.0E-06,1.0E-06,1.0E-06,1.0E-06,1.0E-06,1.0E-06,1.0E-06,2.0E-06,west,0.7
2024/04/16,07:00,1.0E-06,1.0E-06,1.0E-06,1.0E-06,1.0E-06,1.0E-06,1.0E-06,1.8E-06,west,0.7
2024/04/16,07:10,1.0E-06,1.0E-06,1.0E-06,1.0E-06,1.0E-06,1.0E-06,1.0E-06,2.0E-06,northwest,0.5
2024/04/16,07:20,1.0E-06,1.0E-06,1.0E-06,1.0E-06,1.0E-06,1.0E-06,1.0E-06,1.0E-06,north-northeast,0.8
2024/04/16,07:30,1.0E-06,1.0E-06,1.0E-06,1.0E-06,1.0E-06,1.0E-06,1.0E-06,1.0E-06,-,CALM
2024/04/16,07:40,1.0E-06,1.0E-06,1.0E-06,1.0E-06,1.0E-06,1.0E-06,1.0E-06,1.0E-06,east-southeast,0.6
2024/04/16,07:50,1.0E-06,1.0E-06,1.0E-06,1.0E-06,1.0E-06,1.0E-06,1.0E-06,1.0E-06,east-southeast,0.6
2024/04/16,08:00,1.0E-06,1.0E-06,1.0E-06,1.0E-06,1.0E-06,1.0E-06,1.0E-06,1.0E-06,east-southeast,1.0
2024/04/16,08:10,1.0E-06,1.0E-06,1.0E-06,1.0E-06,1.0E-06,1.0E-06,1.0E-06,1.0E-06,east-southeast,1.4
2024/04/16,08:20,1.0E-06,1.0E-06,1.0E-06,1.0E-06,1.0E-06,1.0E-06,1.0E-06,1.0E-06,east-southeast,1.7
2024/04/16,08:30,1.0E-06,1.0E-06,1.0E-06,1.0E-06,1.0E-06,1.0E-06,1.0E-06,1.0E-06,east-southeast,2.3
2024/04/16,08:40,1.0E-06,1.0E-06,1.0E-06,1.0E-06,1.0E-06,1.0E-06,1.0E-06,1.0E-06,southeast,1.4
2024/04/16,08:50,1.9E-06,1.0E-06,1.0E-06,1.0E-06,1.0E-06,1.0E-06,1.0E-06,1.0E-06,east-southeast,0.8
2024/04/16,09:00,1.0E-06,1.0E-06,1.0E-06,1.0E-06,1.0E-06,1.0E-06,1.1E-06,1.0E-06,southeast,2.6
2024/04/16,09:10,1.0E-06,1.4E-06,1.0E-06,1.0E-06,1.0E-06,1.0E-06,1.0E-06,1.0E-06,southeast,3.9
2024/04/16,09:20,1.0E-06,1.0E-06,1.0E-06,1.0E-06,1.0E-06,1.0E-06,1.0E-06,1.0E-06,south-southeast,3.8
2024/04/16,09:30,1.0E-06,1.0E-06,1.0E-06,1.0E-06,1.0E-06,1.0E-06,1.0E-06,1.0E-06,southeast,3.5
2024/04/16,09:40,1.0E-06,1.0E-06,1.0E-06,1.0E-06,1.0E-06,1.0E-06,1.0E-06,1.0E-06,south-southeast,4.3
2024/04/16,09:50,1.0E-06,1.0E-06,1.0E-06,1.0E-06,1.0E-06,1.0E-06,1.0E-06,1.0E-06,south-southeast,4.8
2024/04/16,10:00,1.0E-06,1.0E-06,1.0E-06,1.0E-06,1.0E-06,1.0E-06,1.0E-06,1.0E-06,south,5.2
2024/04/16,10:10,1.0E-06,1.0E-06,1.0E-06,1.0E-06,1.0E-06,1.0E-06,1.0E-06,1.0E-06,south-southeast,5.0
2024/04/16,10:20,1.0E-06,1.0E-06,1.0E-06,1.0E-06,1.0E-06,1.0E-06,1.0E-06,1.0E-06,south-southeast,5.7
2024/04/16,10:30,1.0E-06,1.0E-06,1.0E-06,1.0E-06,1.0E-06,1.0E-06,1.0E-06,1.0E-06,south-southeast,5.6
2024/04/16,10:40,1.0E-06,1.0E-06,1.0E-06,1.0E-06,1.0E-06,1.0E-06,1.0E-06,1.0E-06,south-southeast,6.3
2024/04/16,10:50,1.0E-06,1.0E-06,1.0E-06,1.0E-06,1.0E-06,1.0E-06,1.0E-06,1.0E-06,south-southeast,6.2
2024/04/16,11:00,1.0E-06,1.0E-06,1.0E-06,1.0E-06,1.0E-06,1.0E-06,1.0E-06,1.0E-06,south,7.1
2024/04/16,11:10,1.0E-06,1.0E-06,1.0E-06,1.0E-06,1.0E-06,1.0E-06,1.0E-06,1.0E-06,south-southeast,7.3
2024/04/16,11:20,1.0E-06,1.0E-06,1.0E-06,1.0E-06,1.0E-06,1.0E-06,1.0E-06,1.0E-06,south-southeast,6.9
2024/04/16,11:30,1.0E-06,1.0E-06,1.0E-06,1.0E-06,1.0E-06,1.0E-06,1.0E-06,1.0E-06,south-southeast,8.4
2024/04/16,11:40,1.0E-06,1.0E-06,1.0E-06,1.0E-06,1.0E-06,1.0E-06,1.0E-06,1.0E-06,south,7.5
2024/04/16,11:50,1.0E-06,1.0E-06,1.0E-06,1.0E-06,1.0E-06,1.0E-06,1.0E-06,1.0E-06,south-southeast,7.7
2024/04/16,12:00,1.0E-06,1.0E-06,1.0E-06,1.0E-06,1.0E-06,1.0E-06,1.0E-06,1.0E-06,south-southeast,8.4
2024/04/16,12:10,1.0E-06,1.0E-06,1.0E-06,1.0E-06,1.0E-06,1.0E-06,1.0E-06,1.0E-06,south-southeast,7.7
2024/04/16,12:20,1.0E-06,1.0E-06,1.0E-06,1.0E-06,1.0E-06,1.0E-06,1.0E-06,1.0E-06,south-southeast,8.1
2024/04/16,12:30,1.0E-06,1.0E-06,1.0E-06,1.0E-06,1.0E-06,1.0E-06,1.0E-06,1.0E-06,south-southeast,8.6
2024/04/16,12:40,1.0E-06,1.0E-06,1.0E-06,1.0E-06,1.0E-06,1.0E-06,1.0E-06,1.0E-06,south-southeast,8.6
2024/04/16,12:50,1.0E-06,1.0E-06,1.0E-06,1.0E-06,1.0E-06,1.0E-06,1.0E-06,1.0E-06,south,8.3
2024/04/16,13:00,1.0E-06,1.0E-06,1.0E-06,1.0E-06,1.0E-06,1.0E-06,1.0E-06,1.0E-06,south,8.4
2024/04/16,13:10,1.0E-06,1.0E-06,1.0E-06,1.0E-06,1.0E-06,1.0E-06,1.0E-06,1.0E-06,south,8.5
2024/04/16,13:20,1.0E-06,1.0E-06,1.0E-06,1.0E-06,1.0E-06,1.0E-06,1.0E-06,1.0E-06,south-southeast,8.4
2024/04/16,13:30,1.0E-06,1.0E-06,1.0E-06,1.0E-06,1.0E-06,1.0E-06,1.0E-06,1.0E-06,south-southeast,8.1
2024/04/16,13:40,1.0E-06,1.0E-06,1.0E-06,1.0E-06,1.0E-06,1.0E-06,1.0E-06,1.0E-06,south,7.6
2024/04/16,13:50,1.0E-06,1.0E-06,1.0E-06,1.0E-06,1.0E-06,1.0E-06,1.0E-06,1.0E-06,south,7.6
2024/04/16,14:00,1.0E-06,1.0E-06,1.0E-06,1.0E-06,1.0E-06,1.0E-06,1.0E-06,1.0E-06,south,6.9
2024/04/16,14:10,1.0E-06,1.0E-06,1.0E-06,1.0E-06,1.0E-06,1.0E-06,1.0E-06,1.0E-06,south,7.7
2024/04/16,14:20,1.0E-06,1.0E-06,1.0E-06,1.0E-06,1.0E-06,1.0E-06,1.0E-06,1.0E-06,south,7.4
2024/04/16,14:30,1.0E-06,1.0E-06,1.0E-06,1.0E-06,1.0E-06,1.0E-06,1.0E-06,1.0E-06,south-southeast,8.0
2024/04/16,14:40,1.0E-06,1.0E-06,1.0E-06,1.0E-06,1.0E-06,1.0E-06,1.0E-06,1.0E-06,south,7.9
2024/04/16,14:50,1.0E-06,1.0E-06,1.0E-06,1.0E-06,1.0E-06,1.0E-06,1.0E-06,1.0E-06,south,8.2
2024/04/16,15:00,1.0E-06,1.0E-06,1.0E-06,1.0E-06,1.0E-06,1.0E-06,1.0E-06,1.0E-06,south-southeast,8.2
2024/04/16,15:10,1.0E-06,1.0E-06,1.0E-06,1.0E-06,1.0E-06,1.0E-06,1.0E-06,1.0E-06,south,7.4
2024/04/16,15:20,1.0E-06,1.0E-06,1.0E-06,1.0E-06,1.0E-06,1.0E-06,1.0E-06,1.0E-06,south,7.6
2024/04/16,15:30,1.0E-06,1.0E-06,1.0E-06,1.0E-06,1.0E-06,1.0E-06,1.0E-06,1.0E-06,south,7.6
2024/04/16,15:40,1.0E-06,1.0E-06,1.0E-06,1.0E-06,1.0E-06,1.0E-06,1.0E-06,1.0E-06,south,8.6
2024/04/16,15:50,1.0E-06,1.0E-06,1.0E-06,1.0E-06,1.0E-06,1.0E-06,1.0E-06,1.0E-06,south,8.1
2024/04/16,16:00,1.0E-06,1.0E-06,1.0E-06,1.0E-06,1.0E-06,1.0E-06,1.0E-06,1.0E-06,south,6.8
2024/04/16,16:10,1.0E-06,1.0E-06,1.0E-06,1.0E-06,1.0E-06,1.0E-06,1.0E-06,1.0E-06,south,7.0
2024/04/16,16:20,1.0E-06,1.0E-06,1.0E-06,1.0E-06,1.0E-06,1.0E-06,1.0E-06,1.0E-06,south,6.2
2024/04/16,16:30,1.0E-06,1.0E-06,1.0E-06,1.0E-06,1.0E-06,1.0E-06,1.0E-06,1.0E-06,south,6.2
2024/04/16,16:40,1.0E-06,1.0E-06,1.0E-06,1.0E-06,1.0E-06,1.0E-06,1.0E-06,1.0E-06,south,6.4
2024/04/16,16:50,1.0E-06,1.0E-06,1.0E-06,1.0E-06,1.0E-06,1.0E-06,1.0E-06,1.0E-06,south,5.7
2024/04/16,17:00,1.0E-06,1.0E-06,1.0E-06,1.0E-06,1.0E-06,1.0E-06,1.0E-06,1.0E-06,south,5.3
2024/04/16,17:10,1.0E-06,1.0E-06,1.0E-06,1.0E-06,1.0E-06,1.0E-06,1.0E-06,1.0E-06,south,4.4
2024/04/16,17:20,1.0E-06,1.0E-06,1.0E-06,1.0E-06,1.0E-06,1.0E-06,1.0E-06,1.0E-06,south,4.8
2024/04/16,17:30,1.0E-06,1.0E-06,1.0E-06,1.0E-06,1.0E-06,1.0E-06,1.0E-06,1.0E-06,south,5.4
2024/04/16,17:40,1.0E-06,1.0E-06,1.0E-06,1.0E-06,1.0E-06,1.0E-06,1.0E-06,1.0E-06,south,4.8
2024/04/16,17:50,1.0E-06,1.0E-06,1.0E-06,1.0E-06,1.0E-06,1.0E-06,1.0E-06,1.0E-06,south,5.6
2024/04/16,18:00,1.0E-06,1.0E-06,1.0E-06,1.0E-06,1.0E-06,1.0E-06,1.0E-06,1.0E-06,south,5.5
2024/04/16,18:10,1.0E-06,1.0E-06,1.0E-06,1.0E-06,1.0E-06,1.0E-06,1.0E-06,1.0E-06,south,5.0
2024/04/16,18:20,1.0E-06,1.0E-06,1.0E-06,1.0E-06,1.0E-06,1.0E-06,1.0E-06,1.0E-06,south,4.9
2024/04/16,18:30,1.0E-06,1.0E-06,1.0E-06,1.0E-06,1.0E-06,1.0E-06,1.0E-06,1.0E-06,south,4.3
2024/04/16,18:40,1.0E-06,1.0E-06,1.0E-06,1.0E-06,1.0E-06,1.0E-06,1.0E-06,1.0E-06,south,4.4
2024/04/16,18:50,1.0E-06,1.0E-06,1.0E-06,1.0E-06,1.0E-06,1.0E-06,1.0E-06,1.0E-06,south,4.5
2024/04/16,19:00,1.0E-06,1.0E-06,1.0E-06,1.0E-06,1.0E-06,1.0E-06,1.0E-06,1.0E-06,south-southwest,4.8
2024/04/16,19:10,1.0E-06,1.0E-06,1.0E-06,1.0E-06,1.0E-06,1.0E-06,1.0E-06,1.0E-06,south-southwest,4.8
2024/04/16,19:20,1.0E-06,1.0E-06,1.0E-06,1.0E-06,1.0E-06,1.0E-06,1.0E-06,1.0E-06,south-southwest,5.1
2024/04/16,19:30,1.0E-06,1.0E-06,1.0E-06,1.0E-06,1.0E-06,1.0E-06,1.0E-06,1.0E-06,south-southwest,4.4
2024/04/16,19:40,1.0E-06,1.0E-06,1.0E-06,1.0E-06,1.0E-06,1.0E-06,1.0E-06,1.0E-06,south,4.5
2024/04/16,19:50,1.0E-06,1.0E-06,1.0E-06,1.0E-06,1.0E-06,1.0E-06,1.0E-06,1.0E-06,south-southwest,4.3
2024/04/16,20:00,1.0E-06,1.0E-06,1.0E-06,1.0E-06,1.0E-06,1.0E-06,1.0E-06,1.0E-06,south-southwest,4.9
2024/04/16,20:10,1.0E-06,1.0E-06,1.0E-06,1.0E-06,1.0E-06,1.0E-06,1.0E-06,1.0E-06,south-southwest,4.1
2024/04/16,20:20,1.0E-06,1.0E-06,1.0E-06,1.0E-06,1.0E-06,1.0E-06,1.0E-06,1.0E-06,south-southwest,3.5
2024/04/16,20:30,1.0E-06,1.0E-06,1.0E-06,1.0E-06,1.0E-06,1.0E-06,1.0E-06,1.0E-06,south-southwest,3.7
2024/04/16,20:40,1.0E-06,1.0E-06,1.0E-06,1.0E-06,1.0E-06,1.0E-06,1.0E-06,1.0E-06,south-southwest,4.0
2024/04/16,20:50,1.0E-06,1.0E-06,1.0E-06,1.0E-06,1.0E-06,1.0E-06,1.0E-06,1.0E-06,south-southwest,4.0
2024/04/16,21:00,1.0E-06,1.0E-06,1.0E-06,1.0E-06,1.0E-06,1.0E-06,1.0E-06,1.0E-06,south-southwest,4.5
2024/04/16,21:10,1.0E-06,1.0E-06,1.0E-06,1.0E-06,1.0E-06,1.0E-06,1.0E-06,1.0E-06,south-southwest,4.1
2024/04/16,21:20,1.0E-06,1.0E-06,1.0E-06,1.0E-06,1.0E-06,1.0E-06,1.0E-06,1.0E-06,south-southwest,4.0
2024/04/16,21:30,1.0E-06,1.0E-06,1.0E-06,1.0E-06,1.0E-06,1.0E-06,1.0E-06,1.0E-06,south-southwest,3.9
2024/04/16,21:40,1.0E-06,1.0E-06,1.0E-06,1.0E-06,1.0E-06,1.0E-06,1.0E-06,1.0E-06,south,3.6
2024/04/16,21:50,1.0E-06,1.0E-06,1.0E-06,1.0E-06,1.0E-06,1.0E-06,1.0E-06,1.0E-06,south,3.1
2024/04/16,22:00,1.0E-06,1.0E-06,1.0E-06,1.0E-06,1.0E-06,1.0E-06,1.0E-06,1.0E-06,south,2.9
2024/04/16,22:10,1.0E-06,1.0E-06,1.0E-06,1.0E-06,1.0E-06,1.0E-06,1.0E-06,1.0E-06,south,3.4
2024/04/16,22:20,1.0E-06,1.0E-06,1.0E-06,1.0E-06,1.0E-06,1.0E-06,1.0E-06,1.0E-06,south,2.9
2024/04/16,22:30,1.0E-06,1.0E-06,1.0E-06,1.0E-06,1.0E-06,1.0E-06,1.0E-06,1.0E-06,south,3.2
2024/04/16,22:40,1.0E-06,1.0E-06,1.0E-06,1.0E-06,1.0E-06,1.0E-06,1.0E-06,1.0E-06,south,3.1
2024/04/16,22:50,1.0E-06,1.0E-06,1.0E-06,1.0E-06,1.0E-06,1.0E-06,1.0E-06,1.0E-06,south-southwest,2.9
2024/04/16,23:00,1.0E-06,1.0E-06,1.0E-06,1.0E-06,1.0E-06,1.0E-06,1.0E-06,1.0E-06,south,2.9
2024/04/16,23:10,1.0E-06,1.0E-06,1.0E-06,1.0E-06,1.0E-06,1.0E-06,1.0E-06,1.0E-06,south,2.6
2024/04/16,23:20,1.0E-06,1.0E-06,1.0E-06,1.0E-06,1.0E-06,1.0E-06,1.0E-06,1.0E-06,south,2.3
2024/04/16,23:30,1.0E-06,1.0E-06,1.0E-06,1.0E-06,1.0E-06,1.0E-06,1.0E-06,1.0E-06,south,2.0
2024/04/16,23:40,1.0E-06,1.0E-06,1.0E-06,1.0E-06,1.0E-06,1.0E-06,1.0E-06,1.0E-06,south-southwest,1.8
2024/04/16,23:50,1.0E-06,1.0E-06,1.0E-06,1.0E-06,1.0E-06,1.0E-06,1.0E-06,1.0E-06,southwest,1.1
